Location: T�bingen+AIT
(48.5342°N, 9.0700°E)
Time: 02:54:50
(UTC+01:00)

BREEZE M DEB (TANK) - Pass Details

Date: 14 September 2017
Orbit: 340 x 13672 km, 49.6° (Epoch: 20 November)

Event Time Altitude Azimuth Distance (km) Brightness Sun altitude
Rises 19:50:30 0° 279° (W) 8,615 12.5 -2.8°
Reaches altitude 10° 19:58:35 10° 281° (W) 5,615 9.9 -4.1°
Maximum altitude 20:10:22 90° 192° (SSW) 919 3.9 -6.1°
Drops below altitude 10° 20:13:59 10° 104° (ESE) 1,821 4.8 -6.7°
Enters shadow 20:14:10 - 104° (ESE) 1,908 4.9 -6.7°
